Location: Johnson City
(36.3130°N, 82.3540°W)
Time: 06:57:59
(UTC-04:00)

N. Korean satellite - Visible Passes

Search period start: 26 September 2017 00:00
Search period end: 06 October 2017 00:00
Orbit: 460 x 516 km, 97.2° (Epoch: 25 September)

Date Brightness Start Highest point End Pass type
(mag) Time Alt. Az. Time Alt. Az. Time Alt. Az.
26 Sep 8.6 20:08:40 10° SSW 20:12:04 33° W 20:15:27 10° NNW visible
27 Sep 7.0 19:45:06 10° S 19:48:48 71° WSW 19:52:31 10° NNW visible
29 Sep 9.8 20:33:35 10° SW 20:36:00 16° W 20:38:23 10° NW visible
30 Sep 8.7 20:09:19 10° SSW 20:12:40 32° W 20:16:00 10° NNW visible
01 Oct 7.0 19:45:43 10° S 19:49:24 69° W 19:53:03 10° NNW visible
03 Oct 9.9 20:34:16 10° SW 20:36:33 16° W 20:38:50 10° NW visible
04 Oct 8.7 20:09:54 10° SSW 20:13:11 31° W 20:16:28 10° NNW visible
05 Oct 7.0 19:46:16 10° S 19:49:55 67° W 19:53:32 10° NNW visible
